sat.trackr.live / text

‹ back to catalog

SAUDISAT 1C (SO-50)

NORAD 27607 · 2002-058C

PAYLOAD ACTIVE UNKNOWN

§ Identity

Operator
Country
SAUD
Launch date
2002-12-20
Launch site
TYMSC
Launch vehicle
Mass (kg)
RCS (m²)
0.09

Purposes: comms, tech_demo

External: N2YO · Heavens-Above · Gunter

§ Orbital elements

Epoch: 2026-09-19T05:13:39.005184Z

Period
97.09 min
Inclination
64.5523°
Eccentricity
0.0071734
Mean motion
14.83218520 rev/d
Perigee alt
569.0 km
Apogee alt
669.4 km
Semi-major
6,997.3 km
B*
9.3607e-5
RAAN
198.0161°
Arg perigee
245.1928°
Mean anomaly
114.1705°
Rev number
27,840

§ Raw data

SAUDISAT 1C (SO-50)1 27607U 02058C   26262.21781256  .00000644  00000+0  93607-4 0  99992 27607  64.5523 198.0161 0071734 245.1928 114.1705 14.83218520278402

JSON: /api/v1/satellites/27607 · /tle

For live sub-satellite position, see the globe view (requires WebGL).

§ Visibility from observer

Set your observer location to see the next 7 days of passes ≥ 10°. The values pass through the URL so the page stays shareable.

No JS? Fill the form by hand. The geolocation button needs JavaScript.

§ Radio — SatNOGS DB

ModeDescriptionDownlinkUplink
FM Mode V TLM 149.025 MHz
FM Mode V/U FM Voice CTCSS 67.0 Hz 436.795 MHz 145.850 MHz

2 transmitters · refreshed weekly from db.satnogs.org